"startDT [UTC]","vpos","CH4 [ppm]","stdev(CH4) [ppm]","CO2 [ppm]","stdev(CO2) [ppm]","H2O_reported [%]","stdev(H2O_reported)","CavityPressure [torr]","CavityTemp [C]","OutletValve","CH4_dry [ppm]","CO2_dry [ppm]","DasTemp [C]","EtalonTemp [C]","WarmBoxTemp [C]","MPVPosition","T_ECpre [C]","T_EC1 [C]","T_EC2 [C]","p_inlet [hPa]","p_in [hPa]","p_out [hPa]","T_inlet [C]","RH_inlet [%]","dwpt_inlet [C]","T_vent [C]","RH_vent [%]","dwpt_vent [C]","flow_vent [l min-1]","flow_inlet [l min-1]","dwpt_sample [C]","T_room [C]"
2016-12-30 00:00:00,0.0,1.98255,0.00032,410.535,0.032,0.0256,0.0021,140.001,45.000,31586.15241,1.98303,410.660,34.391,45.073,45.001,0.00,0.06,-272.89,-272.91,-4,530,-930,19.8,0.8,-39.8,20.2,0.9,-38.9,0.45,1.92,-22.1,26.4
2016-12-30 00:01:00,0.0,1.98289,0.00038,410.542,0.032,0.0262,0.0016,140.000,45.000,31585.52957,1.98341,410.673,34.406,45.072,45.000,0.00,0.06,-272.89,-272.90,-5,530,-931,19.8,0.8,-39.7,20.2,0.9,-38.9,0.45,1.97,-22.1,26.4
2016-12-30 00:02:00,0.0,1.98258,0.00036,410.535,0.038,0.0258,0.0014,140.001,45.000,31583.43448,1.98308,410.663,34.404,45.072,45.000,0.00,0.06,-272.87,-272.90,-5,530,-931,19.8,0.8,-39.8,20.2,0.9,-39.0,0.46,1.92,-22.1,26.4
2016-12-30 00:03:00,0.0,1.98181,0.00048,410.501,0.050,0.0255,0.0015,140.000,45.000,31585.29826,1.98233,410.627,34.431,45.072,45.000,0.00,0.06,-272.88,-272.91,-5,531,-930,19.8,0.8,-39.8,20.2,0.9,-38.9,0.46,1.83,-22.1,26.4
2016-12-30 00:04:00,0.0,1.98167,0.00030,410.488,0.040,0.0256,0.0018,140.000,45.000,31586.12412,1.98215,410.614,34.416,45.072,45.000,0.00,0.06,-272.88,-272.91,-4,531,-931,19.8,0.8,-39.7,20.2,0.9,-38.9,0.45,1.82,-22.1,26.4
2016-12-30 00:05:00,0.0,1.98389,0.00055,410.566,0.037,0.0249,0.0015,140.000,45.000,31584.37630,1.98430,410.689,34.394,45.072,45.000,0.00,0.06,-272.87,-272.91,-4,531,-931,19.8,0.8,-39.7,20.2,0.9,-38.9,0.45,1.89,-22.1,26.4
2016-12-30 00:06:00,0.0,1.98426,0.00038,410.584,0.022,0.0246,0.0020,139.997,45.000,31582.05972,1.98475,410.704,34.415,45.072,45.000,0.00,0.06,-272.88,-272.91,-4,531,-930,19.8,0.8,-40.0,20.2,0.9,-38.9,0.46,1.96,-22.1,26.3
2016-12-30 00:07:00,0.0,1.98418,0.00041,410.586,0.045,0.0244,0.0016,140.001,45.000,31582.29882,1.98468,410.707,34.432,45.072,45.000,0.00,0.06,-272.87,-272.92,-4,530,-930,19.8,0.8,-40.1,20.2,0.9,-38.9,0.46,1.95,-22.1,26.4
2016-12-30 00:08:00,0.0,1.98298,0.00036,410.511,0.024,0.0250,0.0017,140.002,45.000,31583.22339,1.98348,410.635,34.396,45.072,45.000,0.00,0.06,-272.87,-272.91,-4,530,-930,19.8,0.8,-40.1,20.2,0.9,-38.9,0.46,1.87,-22.1,26.4
2016-12-30 00:09:00,0.0,1.98205,0.00053,410.494,0.031,0.0239,0.0014,140.001,45.000,31583.95609,1.98256,410.611,34.374,45.072,45.000,0.00,0.06,-272.87,-272.91,-5,530,-931,19.8,0.8,-40.2,20.2,0.9,-39.2,0.46,1.81,-22.1,26.4
2016-12-30 00:10:00,0.0,1.98273,0.00092,410.512,0.056,0.0237,0.0013,140.003,45.000,31583.82621,1.98313,410.627,34.375,45.072,45.000,0.00,0.06,-272.89,-272.91,-5,530,-930,19.8,0.8,-40.4,20.2,0.9,-39.2,0.46,1.86,-22.1,26.4
2016-12-30 00:11:00,0.0,1.98304,0.00047,410.531,0.032,0.0234,0.0019,140.000,45.000,31585.51544,1.98352,410.647,34.375,45.072,45.000,0.00,0.06,-272.88,-272.91,-4,530,-930,19.8,0.8,-40.4,20.2,0.9,-39.2,0.45,1.94,-22.1,26.4
2016-12-30 00:12:00,0.0,1.98383,0.00057,410.579,0.043,0.0240,0.0014,140.001,45.000,31580.39882,1.98423,410.697,34.393,45.072,45.000,0.00,0.06,-272.88,-272.91,-4,530,-930,19.8,0.8,-40.2,20.2,0.8,-39.3,0.46,1.98,-22.1,26.3
2016-12-30 00:13:00,0.0,1.98409,0.00034,410.566,0.033,0.0247,0.0018,140.001,45.000,31581.01852,1.98461,410.689,34.424,45.072,45.000,0.00,0.06,-272.88,-272.92,-4,530,-930,19.8,0.8,-40.1,20.2,0.8,-39.3,0.46,1.90,-22.1,26.4
2016-12-30 00:14:00,0.0,1.98459,0.00038,410.593,0.032,0.0253,0.0014,140.001,45.000,31581.77360,1.98505,410.717,34.466,45.072,45.000,0.00,0.06,-272.87,-272.92,-4,530,-930,19.8,0.8,-39.9,20.2,0.9,-39.1,0.46,1.82,-22.1,26.4
2016-12-30 00:15:00,0.0,1.98422,0.00038,410.573,0.038,0.0252,0.0016,139.999,45.000,31581.98458,1.98472,410.696,34.489,45.071,44.999,0.00,0.06,-272.87,-272.91,-4,530,-930,19.8,0.8,-39.8,20.2,0.9,-39.0,0.46,1.84,-22.1,26.4
2016-12-30 00:16:00,0.0,1.98487,0.00097,410.583,0.042,0.0249,0.0022,140.000,45.000,31581.05506,1.98530,410.707,34.500,45.071,44.999,0.00,0.28,-271.25,-272.84,-4,530,-930,19.8,0.8,-39.8,20.2,0.9,-38.9,0.59,2.06,-26.7,26.4
2016-12-30 00:17:00,0.0,1.98731,0.00066,410.646,0.042,0.0249,0.0017,139.998,45.000,31582.80452,1.98777,410.768,34.500,45.071,44.999,0.00,0.06,-272.88,-272.92,-5,530,-930,19.8,0.8,-40.2,20.2,0.9,-39.1,0.46,1.97,-22.1,26.4
2016-12-30 00:18:00,0.0,1.98741,0.00137,410.650,0.059,0.0237,0.0016,140.000,45.000,31583.78871,1.98790,410.766,34.497,45.071,44.999,0.00,0.06,-272.88,-272.91,-4,530,-931,19.8,0.7,-40.7,20.2,0.8,-39.4,0.46,1.94,-22.1,26.3
2016-12-30 00:19:00,0.0,1.98690,0.00056,410.630,0.028,0.0228,0.0016,140.002,45.000,31584.92836,1.98733,410.742,34.454,45.071,45.000,0.00,0.06,-272.87,-272.91,-4,530,-930,19.8,0.7,-41.1,20.2,0.8,-39.9,0.46,1.85,-22.1,26.3
2016-12-30 00:20:00,0.0,1.98637,0.00041,410.618,0.027,0.0227,0.0020,140.002,45.000,31583.70884,1.98682,410.730,34.438,45.072,45.000,0.00,0.06,-272.88,-272.92,-4,530,-930,19.8,0.7,-41.5,20.2,0.8,-40.1,0.46,1.82,-22.1,26.3
2016-12-30 00:21:00,0.0,1.98612,0.00039,410.604,0.035,0.0226,0.0023,140.000,45.000,31583.89887,1.98657,410.717,34.394,45.072,45.000,0.00,0.06,-272.87,-272.91,-4,530,-930,19.8,0.7,-41.3,20.2,0.8,-40.2,0.45,1.89,-22.1,26.4
2016-12-30 00:22:00,0.0,1.98529,0.00057,410.590,0.027,0.0237,0.0019,140.001,45.000,31584.29746,1.98581,410.706,34.375,45.072,45.001,0.00,0.06,-272.88,-272.91,-4,530,-930,19.8,0.7,-41.0,20.2,0.8,-40.1,0.46,1.97,-22.1,26.3
2016-12-30 00:23:00,0.0,1.98423,0.00052,410.543,0.029,0.0237,0.0019,140.000,45.000,31584.27417,1.98465,410.659,34.366,45.073,45.001,0.00,0.06,-272.88,-272.91,-4,530,-930,19.8,0.8,-40.6,20.2,0.8,-39.7,0.46,1.96,-22.1,26.4
2016-12-30 00:24:00,0.0,1.98496,0.00064,410.613,0.026,0.0243,0.0022,140.000,45.000,31583.58261,1.98548,410.733,34.322,45.073,45.001,0.00,0.06,-272.89,-272.91,-4,530,-930,19.8,0.8,-40.4,20.2,0.8,-39.4,0.46,1.89,-22.1,26.4
2016-12-30 00:25:00,0.0,1.98520,0.00036,410.596,0.030,0.0244,0.0017,140.001,45.000,31583.02469,1.98564,410.716,34.314,45.073,45.001,0.00,0.06,-272.88,-272.91,-4,530,-930,19.8,0.8,-40.6,20.2,0.8,-39.5,0.46,1.83,-22.1,26.4
2016-12-30 00:26:00,0.0,1.98474,0.00065,410.572,0.035,0.0230,0.0019,140.000,45.000,31582.88618,1.98520,410.686,34.332,45.073,45.001,0.00,0.06,-272.88,-272.91,-4,530,-931,19.8,0.8,-40.7,20.2,0.8,-39.6,0.46,1.86,-22.1,26.4
2016-12-30 00:27:00,0.0,1.98486,0.00055,410.569,0.037,0.0236,0.0014,139.998,45.000,31582.73443,1.98531,410.683,34.370,45.073,45.001,0.00,0.06,-272.89,-272.92,-4,530,-931,19.8,0.8,-40.4,20.2,0.8,-39.6,0.46,1.93,-22.1,26.4
2016-12-30 00:28:00,0.0,1.98515,0.00068,410.567,0.039,0.0233,0.0016,140.001,45.000,31583.70523,1.98564,410.684,34.376,45.072,45.000,0.00,0.06,-272.88,-272.91,-4,530,-931,19.8,0.8,-40.7,20.2,0.8,-39.6,0.46,1.97,-22.1,26.4
2016-12-30 00:29:00,0.0,1.98510,0.00060,410.569,0.043,0.0237,0.0014,139.998,45.000,31583.36707,1.98552,410.683,34.378,45.072,45.000,0.00,0.06,-272.88,-272.90,-4,530,-931,19.8,0.7,-40.8,20.2,0.8,-39.6,0.46,1.93,-22.1,26.4
2016-12-30 00:30:00,0.0,1.98866,0.00125,410.689,0.057,0.0235,0.0015,139.998,45.000,31582.61597,1.98907,410.806,34.374,45.072,45.000,0.00,0.06,-272.88,-272.91,-4,530,-931,19.7,0.7,-40.7,20.2,0.8,-39.6,0.46,1.85,-22.1,26.3
2016-12-30 00:31:00,0.0,1.98435,0.00115,410.537,0.035,0.0225,0.0021,140.002,45.000,31584.31824,1.98486,410.649,34.368,45.072,45.000,0.00,0.06,-272.88,-272.91,-4,530,-931,19.7,0.7,-40.9,20.2,0.8,-39.8,0.46,1.83,-22.1,26.3
2016-12-30 00:32:00,0.0,1.98546,0.00176,410.593,0.068,0.0221,0.0021,140.001,45.000,31583.54209,1.98578,410.699,34.376,45.072,45.000,0.00,0.06,-272.88,-272.90,-4,530,-931,19.7,0.7,-41.2,20.2,0.8,-39.9,0.46,1.89,-22.2,26.3
2016-12-30 00:33:00,0.0,1.98790,0.00209,410.683,0.087,0.0219,0.0014,139.999,45.000,31585.61478,1.98843,410.794,34.376,45.072,45.000,0.00,0.06,-272.88,-272.91,-4,530,-931,19.7,0.7,-41.5,20.2,0.8,-40.2,0.46,1.97,-22.2,26.3
2016-12-30 00:34:00,0.0,1.98424,0.00166,410.535,0.069,0.0225,0.0020,139.999,45.000,31582.21868,1.98475,410.648,34.381,45.072,45.000,0.00,0.06,-272.89,-272.92,-4,530,-930,19.7,0.7,-41.5,20.2,0.8,-40.2,0.46,1.96,-22.2,26.3
2016-12-30 00:35:00,0.0,1.98335,0.00087,410.497,0.047,0.0223,0.0018,140.002,45.000,31584.57246,1.98376,410.605,34.377,45.072,45.000,0.00,0.06,-272.87,-272.92,-4,530,-930,19.7,0.7,-41.5,20.2,0.8,-40.2,0.46,1.89,-22.2,26.3
2016-12-30 00:36:00,0.0,1.98448,0.00059,410.540,0.030,0.0228,0.0020,140.000,45.000,31585.55988,1.98488,410.650,34.378,45.072,45.000,0.00,0.06,-272.88,-272.91,-4,530,-930,19.7,0.7,-41.1,20.2,0.8,-40.3,0.46,1.82,-22.2,26.3
2016-12-30 00:37:00,0.0,1.98539,0.00043,410.588,0.031,0.0227,0.0013,140.001,45.000,31584.37085,1.98585,410.699,34.386,45.072,45.000,0.00,0.06,-272.88,-272.92,-4,530,-931,19.7,0.7,-41.2,20.2,0.8,-39.9,0.46,1.85,-22.2,26.3
2016-12-30 00:38:00,0.0,1.98847,0.00075,410.693,0.043,0.0230,0.0019,140.000,45.000,31582.72638,1.98877,410.804,34.379,45.072,45.000,0.00,0.06,-272.88,-272.91,-4,530,-930,19.7,0.7,-41.0,20.2,0.8,-39.9,0.46,1.93,-22.2,26.3
2016-12-30 00:39:00,0.0,1.98970,0.00035,410.726,0.033,0.0224,0.0016,140.000,45.000,31582.81296,1.99015,410.838,34.377,45.072,45.000,0.00,0.06,-272.88,-272.90,-4,530,-930,19.7,0.7,-40.8,20.2,0.8,-39.9,0.46,1.98,-22.1,26.3
2016-12-30 00:40:00,0.0,1.98766,0.00071,410.698,0.028,0.0223,0.0017,139.998,45.000,31581.05487,1.98817,410.809,34.375,45.072,45.000,0.00,0.06,-272.88,-272.91,-4,530,-931,19.7,0.7,-41.1,20.2,0.8,-39.9,0.46,1.92,-22.2,26.3
2016-12-30 00:41:00,0.0,1.98759,0.00045,410.690,0.039,0.0229,0.0023,140.001,45.000,31580.13956,1.98801,410.802,34.375,45.072,45.000,0.00,0.06,-272.88,-272.92,-4,530,-931,19.7,0.7,-41.1,20.2,0.8,-39.9,0.46,1.84,-22.2,26.3
2016-12-30 00:42:00,0.0,1.98727,0.00044,410.666,0.033,0.0218,0.0014,140.000,45.000,31579.49075,1.98772,410.774,34.375,45.072,45.000,0.00,0.06,-272.88,-272.92,-4,530,-931,19.7,0.7,-41.3,20.2,0.8,-40.1,0.46,1.83,-22.2,26.3
2016-12-30 00:43:00,0.0,1.98646,0.00043,410.633,0.040,0.0221,0.0014,140.001,45.000,31579.95615,1.98693,410.742,34.374,45.072,45.000,0.00,0.06,-272.88,-272.91,-4,530,-930,19.7,0.7,-41.6,20.2,0.8,-40.3,0.46,1.89,-22.2,26.3
2016-12-30 00:44:00,0.0,1.98569,0.00059,410.600,0.035,0.0226,0.0019,139.999,45.000,31578.69147,1.98614,410.712,34.367,45.072,45.000,0.00,0.06,-272.89,-272.92,-4,530,-930,19.7,0.7,-41.5,20.2,0.8,-40.2,0.46,1.97,-22.2,26.3
2016-12-30 00:45:00,0.0,1.98440,0.00103,410.543,0.046,0.0216,0.0019,140.002,45.000,31578.89271,1.98486,410.650,34.369,45.072,45.000,0.00,0.06,-272.86,-272.92,-4,530,-930,19.7,0.7,-41.5,20.2,0.8,-40.2,0.46,1.95,-22.2,26.3
2016-12-30 00:46:00,0.0,1.98579,0.00064,410.613,0.034,0.0221,0.0017,139.999,45.000,31577.77647,1.98622,410.721,34.374,45.072,45.000,0.00,0.06,-272.86,-272.91,-4,530,-931,19.7,0.7,-41.5,20.2,0.8,-40.3,0.46,1.88,-22.2,26.3
2016-12-30 00:47:00,0.0,1.98576,0.00140,410.602,0.049,0.0227,0.0020,140.001,45.000,31581.53895,1.98609,410.712,34.373,45.072,45.000,0.00,0.06,-272.89,-272.92,-4,530,-930,19.7,0.7,-41.5,20.2,0.8,-40.2,0.46,1.82,-22.2,26.3
2016-12-30 00:48:00,0.0,1.98627,0.00098,410.618,0.048,0.0230,0.0026,140.001,45.000,31581.13033,1.98680,410.733,34.374,45.072,45.000,0.00,0.06,-272.88,-272.91,-4,530,-930,19.7,0.7,-41.5,20.2,0.8,-40.5,0.46,1.86,-22.2,26.3
2016-12-30 00:49:00,0.0,1.98377,0.00059,410.560,0.025,0.0223,0.0011,140.000,45.000,31578.74385,1.98428,410.671,34.363,45.072,45.000,0.00,0.06,-272.88,-272.91,-4,530,-931,19.7,0.7,-41.6,20.1,0.7,-40.7,0.46,1.94,-22.2,26.3
2016-12-30 00:50:00,0.0,1.98327,0.00037,410.517,0.038,0.0218,0.0018,140.001,45.000,31580.05251,1.98371,410.623,34.365,45.072,45.000,0.00,0.06,-272.88,-272.92,-4,530,-931,19.7,0.7,-41.5,20.1,0.7,-40.6,0.46,1.97,-22.2,26.3
2016-12-30 00:51:00,0.0,1.98461,0.00065,410.567,0.031,0.0223,0.0016,139.997,45.000,31578.38649,1.98499,410.677,34.359,45.072,45.000,0.00,0.06,-272.88,-272.92,-4,530,-931,19.7,0.7,-41.5,20.2,0.8,-40.4,0.46,1.92,-22.2,26.3
2016-12-30 00:52:00,0.0,1.98883,0.00179,410.725,0.074,0.0224,0.0015,139.999,45.000,31578.10279,1.98911,410.834,34.370,45.072,45.000,0.00,0.06,-272.87,-272.91,-4,530,-931,19.7,0.7,-41.3,20.1,0.8,-40.4,0.46,1.83,-22.2,26.3
2016-12-30 00:53:00,0.0,1.98891,0.00116,410.711,0.050,0.0221,0.0018,140.001,45.000,31578.98401,1.98928,410.818,34.376,45.072,45.000,0.00,0.06,-272.88,-272.91,-4,530,-931,19.7,0.7,-41.2,20.2,0.8,-40.2,0.46,1.83,-22.2,26.3
2016-12-30 00:54:00,0.0,1.99092,0.00231,410.776,0.082,0.0227,0.0016,140.001,45.000,31578.63736,1.99119,410.886,34.403,45.072,45.000,0.00,0.06,-272.89,-272.92,-4,530,-931,19.7,0.7,-41.1,20.1,0.8,-39.9,0.46,1.90,-22.2,26.3
2016-12-30 00:55:00,0.0,1.99382,0.00374,410.892,0.138,0.0224,0.0012,140.000,45.000,31576.55483,1.99455,411.007,34.384,45.072,45.000,0.00,0.06,-272.89,-272.90,-4,530,-931,19.7,0.7,-41.1,20.1,0.8,-40.2,0.46,1.97,-22.2,26.3
2016-12-30 00:56:00,0.0,1.98759,0.00180,410.660,0.056,0.0221,0.0020,139.999,45.000,31578.06932,1.98783,410.766,34.375,45.072,45.000,0.00,0.06,-272.87,-272.91,-4,530,-931,19.7,0.7,-41.6,20.1,0.8,-40.3,0.46,1.95,-22.2,26.3
2016-12-30 00:57:00,0.0,1.99007,0.00209,410.783,0.082,0.0213,0.0020,140.002,45.000,31578.43567,1.99063,410.890,34.375,45.072,45.000,0.00,0.06,-272.88,-272.92,-4,530,-931,19.7,0.7,-41.7,20.1,0.8,-40.4,0.46,1.87,-22.2,26.3
2016-12-30 00:58:00,0.0,1.98974,0.00167,410.745,0.086,0.0209,0.0022,140.001,45.000,31578.64460,1.99016,410.849,34.361,45.072,45.000,0.00,0.06,-272.88,-272.91,-4,530,-931,19.7,0.7,-42.0,20.1,0.7,-40.6,0.46,1.82,-22.2,26.3
2016-12-30 00:59:00,0.0,1.98997,0.00145,410.770,0.054,0.0218,0.0021,139.998,45.000,31578.63288,1.99030,410.876,34.353,45.072,45.000,0.00,0.06,-272.87,-272.91,-4,530,-931,19.7,0.6,-42.4,20.1,0.7,-40.9,0.46,1.87,-22.2,26.3
2016-12-30 01:00:00,0.0,1.98940,0.00134,410.760,0.059,0.0215,0.0014,139.999,45.000,31577.02515,1.98996,410.868,34.318,45.072,45.000,0.00,0.06,-272.88,-272.91,-4,530,-931,19.7,0.6,-42.1,20.1,0.7,-41.0,0.46,1.94,-22.2,26.3
2016-12-30 01:01:00,0.0,1.98805,0.00074,410.712,0.036,0.0218,0.0020,140.001,45.000,31576.83819,1.98848,410.820,34.302,45.072,45.000,0.00,0.06,-272.88,-272.91,-4,530,-931,19.7,0.7,-41.8,20.1,0.7,-40.7,0.46,1.97,-22.2,26.3
2016-12-30 01:02:00,0.0,1.98581,0.00077,410.627,0.037,0.0222,0.0015,140.003,45.000,31577.23089,1.98633,410.737,34.276,45.072,45.001,0.00,0.06,-272.87,-272.91,-4,530,-930,19.7,0.7,-41.5,20.1,0.7,-40.6,0.46,1.92,-22.2,26.3
2016-12-30 01:03:00,0.0,1.98578,0.00038,410.661,0.035,0.0222,0.0014,140.000,45.000,31575.62479,1.98618,410.769,34.298,45.073,45.001,0.00,0.06,-272.88,-272.91,-4,530,-931,19.7,0.7,-41.3,20.1,0.8,-40.3,0.46,1.84,-22.2,26.3
2016-12-30 01:04:00,0.0,1.98573,0.00031,410.639,0.038,0.0228,0.0019,139.999,45.000,31574.51263,1.98618,410.752,34.295,45.072,45.000,0.00,0.06,-272.88,-272.91,-4,530,-931,19.7,0.7,-41.2,20.1,0.8,-40.3,0.46,1.84,-22.2,26.3
2016-12-30 01:05:00,0.0,1.98562,0.00039,410.621,0.030,0.0230,0.0017,140.000,45.000,31574.91969,1.98608,410.735,34.263,45.072,45.000,0.00,0.06,-272.89,-272.91,-4,530,-931,19.7,0.7,-41.1,20.1,0.8,-39.9,0.46,1.90,-22.2,26.3
2016-12-30 01:06:00,0.0,1.98512,0.00043,410.607,0.026,0.0234,0.0015,140.001,45.000,31576.95293,1.98559,410.722,34.248,45.072,45.001,0.00,0.06,-272.88,-272.91,-4,530,-931,19.7,0.7,-40.8,20.1,0.8,-40.0,0.46,1.97,-22.2,26.3
2016-12-30 01:07:00,0.0,1.98485,0.00044,410.608,0.035,0.0249,0.0021,140.002,45.000,31576.73879,1.98536,410.731,34.243,45.072,45.000,0.00,0.06,-272.89,-272.92,-4,530,-931,19.7,0.8,-40.5,20.1,0.8,-39.8,0.46,1.96,-22.2,26.3
2016-12-30 01:08:00,0.0,1.98504,0.00049,410.613,0.033,0.0248,0.0027,139.999,45.000,31577.34113,1.98550,410.734,34.249,45.072,45.000,0.00,0.06,-272.88,-272.91,-4,530,-931,19.7,0.8,-40.1,20.1,0.8,-39.3,0.46,1.89,-22.2,26.3
2016-12-30 01:09:00,0.0,1.98563,0.00040,410.615,0.032,0.0243,0.0018,140.001,45.000,31577.11321,1.98608,410.735,34.239,45.072,45.000,0.00,0.06,-272.87,-272.90,-4,530,-931,19.7,0.8,-40.1,20.1,0.8,-39.3,0.46,1.82,-22.2,26.3
2016-12-30 01:10:00,0.0,1.98550,0.00039,410.605,0.036,0.0231,0.0021,140.000,45.000,31578.16344,1.98597,410.719,34.250,45.072,45.000,0.00,0.06,-272.88,-272.90,-4,530,-931,19.7,0.8,-40.5,20.1,0.8,-39.3,0.46,1.85,-22.2,26.3
2016-12-30 01:11:00,0.0,1.98514,0.00038,410.586,0.033,0.0240,0.0016,140.001,45.000,31577.94229,1.98561,410.704,34.251,45.072,45.000,0.00,0.06,-272.88,-272.91,-4,530,-931,19.7,0.8,-40.3,20.1,0.8,-39.3,0.46,1.94,-22.2,26.3
2016-12-30 01:12:00,0.0,1.98486,0.00064,410.562,0.038,0.0251,0.0015,140.000,45.000,31577.54628,1.98533,410.685,34.257,45.072,45.000,0.00,0.06,-272.88,-272.90,-4,530,-931,19.7,0.8,-40.2,20.1,0.8,-39.3,0.46,1.98,-22.2,26.3
2016-12-30 01:13:00,0.0,1.98527,0.00041,410.599,0.036,0.0246,0.0013,139.998,45.000,31577.85282,1.98576,410.722,34.271,45.072,45.000,0.00,0.06,-272.88,-272.92,-4,530,-931,19.7,0.8,-40.1,20.1,0.9,-39.1,0.46,1.93,-22.2,26.3
2016-12-30 01:14:00,0.0,1.98506,0.00043,410.591,0.035,0.0249,0.0017,140.000,45.000,31575.74180,1.98555,410.710,34.274,45.072,45.000,0.00,0.06,-272.88,-272.92,-4,530,-931,19.7,0.8,-40.1,20.1,0.9,-39.0,0.46,1.85,-22.2,26.3
2016-12-30 01:15:00,0.0,1.98461,0.00068,410.577,0.043,0.0238,0.0015,140.001,45.000,31574.89941,1.98508,410.695,34.283,45.072,45.000,0.00,0.06,-272.88,-272.92,-4,530,-931,19.7,0.8,-40.1,20.1,0.9,-39.2,0.46,1.83,-22.2,26.3
2016-12-30 01:16:00,0.0,1.98510,0.00197,410.609,0.071,0.0244,0.0013,140.000,45.000,31574.69826,1.98553,410.728,34.305,45.072,45.000,0.00,0.06,-272.88,-272.91,-4,530,-931,19.7,0.8,-40.2,20.1,0.8,-39.4,0.46,1.89,-22.2,26.3
2016-12-30 01:17:00,0.0,1.98765,0.00132,410.691,0.054,0.0235,0.0023,140.000,45.000,31574.50777,1.98819,410.808,34.303,45.072,45.000,0.00,0.06,-272.88,-272.92,-4,530,-931,19.7,0.8,-40.5,20.1,0.9,-39.3,0.46,1.96,-22.2,26.2
2016-12-30 01:18:00,0.0,1.98672,0.00108,410.650,0.041,0.0232,0.0018,139.998,45.000,31574.64429,1.98709,410.763,34.313,45.072,45.000,0.00,0.06,-272.88,-272.91,-4,530,-931,19.7,0.7,-40.8,20.1,0.8,-39.6,0.46,1.97,-22.2,26.3
2016-12-30 01:19:00,0.0,1.98763,0.00158,410.674,0.072,0.0234,0.0015,140.001,45.000,31575.38273,1.98806,410.789,34.314,45.072,45.000,0.00,0.06,-272.88,-272.91,-4,530,-931,19.7,0.7,-40.9,20.1,0.8,-39.7,0.46,1.89,-22.2,26.3
2016-12-30 01:20:00,0.0,1.98849,0.00072,410.701,0.033,0.0230,0.0020,139.999,45.000,31574.07669,1.98886,410.814,34.307,45.072,45.000,0.00,0.06,-272.88,-272.91,-4,530,-931,19.7,0.7,-41.2,20.1,0.8,-39.9,0.46,1.83,-22.2,26.2
2016-12-30 01:21:00,0.0,1.99122,0.00123,410.813,0.070,0.0219,0.0014,140.001,45.000,31574.94947,1.99161,410.919,34.301,45.072,45.000,0.00,0.06,-272.89,-272.92,-4,530,-931,19.7,0.7,-41.0,20.1,0.8,-40.0,0.46,1.85,-22.2,26.3
2016-12-30 01:22:00,0.0,1.99107,0.00233,410.776,0.087,0.0223,0.0019,140.002,45.000,31577.53585,1.99137,410.885,34.287,45.072,45.000,0.00,0.06,-272.88,-272.91,-4,530,-931,19.7,0.7,-41.4,20.1,0.8,-40.2,0.46,1.93,-22.2,26.2
2016-12-30 01:23:00,0.0,1.99181,0.00171,410.823,0.066,0.0212,0.0014,140.000,45.000,31577.05831,1.99244,410.931,34.310,45.072,45.000,0.00,0.06,-272.88,-272.91,-4,530,-931,19.7,0.7,-41.7,20.1,0.8,-40.4,0.46,1.98,-22.2,26.3
2016-12-30 01:24:00,0.0,1.99417,0.00327,410.897,0.140,0.0208,0.0019,139.999,45.000,31576.91363,1.99425,410.993,34.311,45.072,45.000,0.00,0.06,-272.87,-272.92,-4,530,-931,19.7,0.6,-42.1,20.1,0.7,-40.6,0.46,1.94,-22.2,26.3
2016-12-30 01:25:00,0.0,1.99556,0.00104,410.958,0.032,0.0194,0.0016,139.999,45.000,31576.96054,1.99604,411.055,34.312,45.072,45.000,0.00,0.06,-272.88,-272.92,-4,530,-931,19.7,0.6,-42.5,20.1,0.7,-41.0,0.46,1.86,-22.2,26.3
2016-12-30 01:26:00,0.0,1.99304,0.00114,410.855,0.048,0.0194,0.0019,140.000,45.000,31576.55595,1.99344,410.951,34.320,45.072,45.000,0.00,0.06,-272.87,-272.91,-4,530,-931,19.7,0.6,-42.8,20.1,0.7,-41.3,0.46,1.83,-22.2,26.3
2016-12-30 01:27:00,0.0,1.99223,0.00073,410.846,0.030,0.0214,0.0021,140.001,45.000,31577.33844,1.99274,410.953,34.344,45.072,45.000,0.00,0.06,-272.88,-272.91,-4,530,-931,19.7,0.6,-42.6,20.1,0.7,-41.3,0.46,1.88,-22.2,26.3
2016-12-30 01:28:00,0.0,1.99004,0.00105,410.772,0.037,0.0201,0.0016,139.999,45.000,31576.73908,1.99046,410.873,34.323,45.072,45.000,0.00,0.06,-272.89,-272.91,-4,530,-931,19.7,0.6,-42.5,20.1,0.7,-41.2,0.46,1.96,-22.2,26.3
2016-12-30 01:29:00,0.0,1.99003,0.00108,410.770,0.037,0.0204,0.0018,140.000,45.000,31577.17492,1.99038,410.868,34.313,45.072,45.000,0.00,0.06,-272.88,-272.92,-4,530,-931,19.7,0.6,-42.3,20.1,0.7,-41.3,0.46,1.98,-22.2,26.2
2016-12-30 01:30:00,0.0,1.99387,0.00328,410.897,0.112,0.0206,0.0017,140.000,45.000,31576.77071,1.99442,411.000,34.316,45.072,45.000,0.00,0.06,-272.88,-272.92,-4,530,-931,19.7,0.6,-42.3,20.1,0.7,-41.1,0.46,1.90,-22.2,26.2
2016-12-30 01:31:00,0.0,1.98738,0.00078,410.695,0.039,0.0204,0.0010,139.999,45.000,31577.01004,1.98782,410.796,34.309,45.072,45.000,0.00,0.06,-272.89,-272.92,-4,530,-931,19.7,0.6,-42.2,20.1,0.7,-40.9,0.46,1.84,-22.2,26.2
2016-12-30 01:32:00,0.0,1.98962,0.00177,410.772,0.069,0.0210,0.0025,139.997,45.000,31575.18148,1.98998,410.875,34.298,45.072,45.000,0.00,0.06,-272.87,-272.91,-4,530,-931,19.6,0.6,-42.2,20.1,0.7,-41.0,0.46,1.85,-22.2,26.2
2016-12-30 01:33:00,0.0,1.99183,0.00121,410.832,0.053,0.0209,0.0019,139.997,45.000,31576.27708,1.99210,410.933,34.308,45.072,45.000,0.00,0.06,-272.88,-272.90,-4,530,-931,19.7,0.6,-42.4,20.1,0.7,-41.1,0.46,1.92,-22.2,26.3
2016-12-30 01:34:00,0.0,1.99516,0.00085,410.940,0.047,0.0205,0.0017,140.001,45.000,31575.94347,1.99553,411.041,34.302,45.072,45.000,0.00,0.06,-272.88,-272.91,-4,530,-931,19.7,0.6,-42.5,20.1,0.7,-41.1,0.46,1.97,-22.2,26.3
2016-12-30 01:35:00,0.0,1.98971,0.00213,410.755,0.098,0.0208,0.0018,139.998,45.000,31576.24202,1.99025,410.860,34.268,45.072,45.000,0.00,0.06,-272.89,-272.91,-4,530,-931,19.7,0.6,-42.6,20.1,0.7,-41.3,0.46,1.95,-22.3,26.2
2016-12-30 01:36:00,0.0,1.99502,0.00352,410.942,0.149,0.0198,0.0017,139.999,45.000,31576.24203,1.99517,411.035,34.260,45.072,45.000,0.00,0.06,-272.87,-272.90,-4,530,-931,19.7,0.6,-43.0,20.1,0.7,-41.5,0.46,1.87,-22.3,26.3
2016-12-30 01:37:00,0.0,1.99304,0.00156,410.896,0.067,0.0199,0.0019,140.001,45.000,31575.83014,1.99360,410.999,34.282,45.072,45.000,0.00,0.06,-272.88,-272.92,-4,530,-931,19.7,0.6,-43.0,20.1,0.7,-41.7,0.46,1.83,-22.3,26.2
2016-12-30 01:38:00,0.0,1.99225,0.00072,410.867,0.054,0.0190,0.0021,140.000,45.000,31573.82937,1.99261,410.959,34.260,45.072,45.000,0.00,0.06,-272.89,-272.92,-4,530,-931,19.7,0.6,-43.1,20.1,0.7,-41.8,0.46,1.86,-22.3,26.3
2016-12-30 01:39:00,0.0,1.99492,0.00079,410.972,0.046,0.0194,0.0019,140.000,45.000,31574.31923,1.99519,411.068,34.252,45.072,45.000,0.00,0.06,-272.88,-272.91,-4,530,-931,19.7,0.6,-43.1,20.1,0.7,-41.8,0.46,1.94,-22.3,26.3
2016-12-30 01:40:00,0.0,1.99385,0.00241,410.916,0.088,0.0190,0.0017,140.000,45.000,31576.48052,1.99438,411.013,34.260,45.072,45.000,0.00,0.06,-272.87,-272.92,-4,530,-931,19.7,0.6,-43.1,20.1,0.7,-41.7,0.46,1.97,-22.3,26.2
2016-12-30 01:41:00,0.0,1.99026,0.00049,410.786,0.038,0.0190,0.0022,140.003,45.000,31577.38270,1.99066,410.880,34.278,45.072,45.000,0.00,0.06,-272.88,-272.92,-4,530,-931,19.7,0.6,-43.1,20.1,0.7,-41.7,0.46,1.93,-22.2,26.2
2016-12-30 01:42:00,0.0,1.99047,0.00059,410.771,0.043,0.0193,0.0015,140.001,45.000,31576.40051,1.99085,410.865,34.276,45.072,45.000,0.00,0.06,-272.88,-272.91,-4,530,-931,19.7,0.6,-43.1,20.1,0.7,-41.8,0.46,1.85,-22.2,26.2
2016-12-30 01:43:00,0.0,1.98937,0.00038,410.764,0.037,0.0193,0.0013,139.996,45.000,31575.42488,1.98977,410.861,34.250,45.072,45.000,0.00,0.06,-272.88,-272.90,-4,530,-931,19.7,0.6,-43.1,20.1,0.7,-41.7,0.46,1.83,-22.3,26.2
2016-12-30 01:44:00,0.0,1.98902,0.00037,410.746,0.038,0.0196,0.0017,139.999,45.000,31577.56677,1.98942,410.843,34.249,45.072,45.000,0.00,0.06,-272.88,-272.91,-4,530,-931,19.7,0.6,-43.1,20.1,0.7,-41.7,0.46,1.88,-22.3,26.2
2016-12-30 01:45:00,0.0,1.98933,0.00046,410.745,0.032,0.0194,0.0022,140.001,45.000,31578.66611,1.98966,410.839,34.250,45.072,45.000,0.00,0.06,-272.89,-272.92,-4,530,-931,19.7,0.6,-43.2,20.1,0.7,-41.8,0.46,1.95,-22.3,26.2